User: anonymous   Login
Location: Unspecified
(0.0000°N, 0.0000°E)
Time: 08:28:31
(UTC+00:00)
Language:

MERIDIAN 1 - Orbit

View from above orbital plane
View from above orbital plane
View from above satellite
View from above satellite

Ground track
Ground track

The orbit is defined by the following mean orbital elements,

1 29668U 06061A   21187.54762907  .99999999  88006-5  39685-3 0  9996
2 29668  61.1736 172.0554 0243685 261.4665 207.9004 16.18069742109757
Epoch (UTC): 06 July 2021 13:08:35
Eccentricity: 0.0243685
inclination: 61.1736°
perigee height: 64 km
apogee height: 386 km
right ascension of ascending node: 172.0554°
argument of perigee: 261.4665°
revolutions per day: 16.18069742
mean anomaly at epoch: 207.9004°

The dashed part of the orbit path shows where the satellite is in the earth's shadow,  

DLR